TimeMDT,TemperatureF,Dew PointF,Humidity,Sea Level PressureIn,VisibilityMPH,Wind Direction,Wind SpeedMPH,Gust SpeedMPH,PrecipitationIn,Events,Conditions,WindDirDegrees,DateUTC
12:53 AM,44.1,34.0,68,30.01,10.0,NNW,10.4,23.0,N/A,,Clear,330,2012-10-11 06:53:00
1:53 AM,41.0,34.0,76,30.03,10.0,North,5.8,-,N/A,,Clear,350,2012-10-11 07:53:00
2:53 AM,41.0,34.0,76,30.04,10.0,NNW,9.2,-,N/A,,Overcast,340,2012-10-11 08:53:00
3:34 AM,41.0,33.8,76,30.12,10.0,North,9.2,-,N/A,,Overcast,350,2012-10-11 09:34:00
3:53 AM,41.0,34.0,76,30.05,10.0,North,6.9,-,N/A,,Overcast,350,2012-10-11 09:53:00
4:53 AM,39.9,34.0,79,30.06,10.0,North,5.8,-,N/A,,Overcast,10,2012-10-11 10:53:00
5:42 AM,39.2,33.8,81,30.14,10.0,NNE,6.9,-,N/A,,Overcast,20,2012-10-11 11:42:00
5:53 AM,39.0,34.0,82,30.09,10.0,NNE,4.6,-,N/A,,Overcast,30,2012-10-11 11:53:00
6:22 AM,37.4,33.8,87,30.16,10.0,NNE,6.9,-,N/A,,Overcast,30,2012-10-11 12:22:00
6:53 AM,37.9,34.0,86,30.14,10.0,NNE,5.8,-,N/A,,Overcast,30,2012-10-11 12:53:00
7:53 AM,37.0,34.0,89,30.17,10.0,East,4.6,-,N/A,,Overcast,90,2012-10-11 13:53:00
8:53 AM,37.0,33.1,86,30.20,10.0,East,4.6,-,N/A,,Overcast,80,2012-10-11 14:53:00
9:53 AM,36.0,32.0,86,30.22,9.0,East,6.9,-,N/A,,Overcast,80,2012-10-11 15:53:00
10:51 AM,35.6,33.8,93,30.23,2.5,ESE,4.6,-,N/A,,Overcast,110,2012-10-11 16:51:00
10:53 AM,36.0,34.0,93,30.23,2.5,ESE,4.6,-,N/A,,Overcast,110,2012-10-11 16:53:00
11:16 AM,37.4,33.8,87,30.23,3.0,ESE,4.6,-,N/A,,Overcast,120,2012-10-11 17:16:00
11:27 AM,37.4,33.8,87,30.23,3.0,East,4.6,-,N/A,,Overcast,100,2012-10-11 17:27:00
11:53 AM,37.9,34.0,86,30.23,10.0,ESE,4.6,-,N/A,,Overcast,120,2012-10-11 17:53:00
12:13 PM,37.4,33.8,87,30.23,10.0,ESE,3.5,-,N/A,,Overcast,110,2012-10-11 18:13:00
12:53 PM,37.9,34.0,86,30.23,10.0,ESE,4.6,-,N/A,,Overcast,110,2012-10-11 18:53:00
1:18 PM,39.2,32.0,75,30.21,10.0,ESE,5.8,-,N/A,,Overcast,110,2012-10-11 19:18:00
1:49 PM,39.2,32.0,75,30.20,10.0,SE,8.1,-,N/A,,Overcast,140,2012-10-11 19:49:00
1:53 PM,39.0,32.0,76,30.22,10.0,ESE,6.9,-,N/A,,Overcast,120,2012-10-11 19:53:00
2:53 PM,41.0,30.9,67,30.19,10.0,SE,10.4,-,N/A,,Overcast,130,2012-10-11 20:53:00
4:53 PM,43.0,32.0,65,30.15,10.0,SE,12.7,-,N/A,,Overcast,140,2012-10-11 22:53:00
5:53 PM,44.1,33.1,65,30.14,10.0,ESE,8.1,-,N/A,,Clear,120,2012-10-11 23:53:00
7:53 PM,37.0,30.9,79,30.18,10.0,SSW,4.6,-,N/A,,Clear,200,2012-10-12 01:53:00
8:53 PM,36.0,32.0,86,30.16,10.0,South,10.4,-,N/A,,Clear,170,2012-10-12 02:53:00
9:53 PM,39.9,32.0,73,30.14,10.0,SSE,15.0,-,N/A,,Clear,160,2012-10-12 03:53:00
10:53 PM,37.9,30.9,76,30.12,10.0,SSE,17.3,-,N/A,,Clear,160,2012-10-12 04:53:00
11:53 PM,37.9,30.9,76,30.09,10.0,SSE,17.3,-,N/A,,Clear,160,2012-10-12 05:53:00